Retour au catalogue

STARLINK-11602

ActifCommunicationsVLEO
NORAD 63183·PAYLOAD·🇺🇸 United States

Lancé Mar 13, 2025 depuis Cape Canaveral Space Force Station

Loading…

Prochains Passages (prochaines 24 heures)

TLE

FraisSource: CelesTrak SupGP

Époque: Sep 15, 2026, 03:28 UTC

1 63183C 25048A   26258.14493056 -.00056094  00000+0 -43561-3 0  2580
2 63183  43.0006 258.2347 0001575 257.8086 119.2767 15.70870142    10

Suivez STARLINK-11602 en temps réel avec AllMySat

Download on the App Store